Miscellaneous Local Product
Issued by NWS North Platte, NE

Home | Current Version | Previous Version | Text Only | Print | Product List | Glossary On
Versions: 1 2 3 4 5 6 7 8 9 10 11 12 13 14 15 16 17 18 19 20 21 22 23 24 25 26 27 28 29 30 31 32 33 34 35 36 37 38 39 40 41 42 43 44 45 46 47 48 49 50
000
AXUS43 KLBF 041210
MISLBF


WESTERN AND NORTH CENTRAL NEBRASKA HOURLY WEATHER ROUNDUP
NATIONAL WEATHER SERVICE NORTH PLATTE NE
600 AM CST SUN DEC 04 2016

NOTE: "FAIR" INDICATES FEW OR NO CLOUDS BELOW 12,000 FEET WITH NO
SIGNIFICANT WEATHER AND/OR OBSTRUCTIONS TO VISIBILITY.

NOTE: STATIONS NOT REPORTING VARIABLES SUCH AS SKY/WEATHER OR
PRESSURE ARE PROVIDED BY RAWS AND APRS NETWORKS AND ARE NOT UNDER
NATIONAL WEATHER SERVICE QUALITY CONTROL.

...OBSERVATIONS IN AND NEAR THE EASTERN PANHANDLE OF NEBRASKA...

CITY           SKY/WX    TMP DP  RH WIND       PRES   REMARKS
PINE RIDGE     CLOUDY    30  18  60 W8        29.93F WCI  22
CHADRON        CLOUDY    27  15  61 SW9       29.95F WCI  18
ALLIANCE       CLEAR     17  12  80 W10       29.96F WCI   5
SIDNEY         CLEAR     23  14  68 W13       30.00S WCI  11
CRESCENT LAKE    N/A     25  15  65 W9          N/A  WCI  16
$$

...OBSERVATIONS IN NORTHERN NEBRASKA AND FAR SOUTHERN SOUTH DAKOTA...

CITY           SKY/WX    TMP DP  RH WIND       PRES   REMARKS
WINNER         FAIR      34  25  69 W8        29.89S WCI  27
VALENTINE      PTCLDY    21  18  88 SW5       29.91F WCI  15
THEDFORD       CLEAR     25  19  80 W7        29.95S WCI  17
AINSWORTH      CLEAR     25  21  85 W6        29.92S WCI  18
O`NEILL        CLEAR     27  23  84 W6        29.91S WCI  21
ORD            CLEAR     26  21  81 CALM      29.94S
BROKEN BOW     PTCLDY    33  22  63 W13       29.94S WCI  24
VALENTINE NWR    N/A     27  20  73 W9          N/A  WCI  18
BUTTE            N/A     26  22  85 W7          N/A  WCI  18
HALSEY           N/A     27  19  70 W7          N/A  WCI  20
CHAMBERS         N/A     25  22  86 CALM        N/A
EWING            N/A     24  23  94 CALM        N/A
$$

...OBSERVATIONS IN SOUTHWEST NEBRASKA AND FAR NORTHEAST COLORADO...

CITY           SKY/WX    TMP DP  RH WIND       PRES   REMARKS
WRAY           FAIR      19  14  79 W7        30.03S WCI  10
HOLYOKE        FAIR      25  14  63 W8        30.02R WCI  16
IMPERIAL       CLEAR     24  14  65 W13       30.01S WCI  12
OGALLALA       CLEAR     23  17  78 W6        30.00S WCI  16
NORTH PLATTE   PTCLDY    19  15  84 W8        29.98S WCI   9
MCCOOK         CLEAR     23  17  78 W13       30.00S WCI  11
LEXINGTON      PTCLDY    24  21  89 W8        29.98S WCI  15
STAPLETON        N/A     24  19  80 CALM        N/A
GOTHENBURG       N/A     23  18  80 NW5         N/A  WCI  17
CALLAWAY         N/A     27  22  81 NW12        N/A  WCI  17
$$

...OBSERVATIONS IN CENTRAL LINCOLN COUNTY AREA...

CITY           SKY/WX    TMP DP  RH WIND       PRES   REMARKS
N.P. AIRPORT   PTCLDY    19  15  84 W8        29.98S WCI   9
N.P. DOWNTOWN    N/A     25  20  79 CALM        N/A
N.P. SOUTHEAST   N/A     26  19  74 CALM        N/A
N.P. HILLCREST   N/A     24  19  80 CALM        N/A
$$

...SOME OBSERVATIONS FROM AROUND THE REGION...

CITY           SKY/WX    TMP DP  RH WIND       PRES   REMARKS
LARAMIE        CLOUDY    17   8  67 S12       29.95F WCI   4
CHEYENNE       CLEAR     26   8  46 W25G32    29.95F WCI  11
DENVER         CLOUDY    20   6  55 SW10      30.00R WCI   9
AKRON          CLEAR     24  10  55 W8        30.01R WCI  15
SCOTTSBLUFF    CLEAR     17  10  74 NW6       29.99F WCI   9
RAPID CITY     CLEAR     25  18  74 NW10      29.89S WCI  15
BISMARCK       CLOUDY    33  29  85 W14       29.76S WCI  23
PIERRE         MOCLDY    31  24  75 W12       29.86S WCI  22
SIOUX FALLS    CLOUDY    33  32  96 SW10      29.88S WCI  25
OMAHA          CLOUDY    34  30  85 CALM      29.98F
GRAND ISLAND   CLOUDY    30  30 100 W12       29.96S FOG     WCI  20
KANSAS CITY    LGT RAIN  38  35  89 SW6       30.01F WCI  33
WICHITA        CLOUDY    41  39  93 NW3       30.02F
OKLAHOMA CITY  CLOUDY    43  42  97 N6        30.02F
DALLAS         CLOUDY    48  45  89 N8        29.98R
AMARILLO       MOCLDY    34  33  96 N9        30.06S WCI  27
DODGE CITY     CLEAR     28  25  88 NW10      30.04S WCI  19
HAYS           CLEAR     28  27  96 W6        30.02S WCI  22
GOODLAND       CLEAR     21  12  68 W13       30.02S WCI   9
$$




USA.gov is the U.S. government's official web portal to all federal, state and local government web resources and services.